Lid_Strength_Index
10 11 14 15 15 17 17 18 19 21 20 19 18 16 17 16 16 17 17 14 12 12 11 11 11 10 9 8 8 8 7 7 7 7 6 7 6 6
12 14 15 16 16 16 17 18 17 18 20 18 18 17 16 16 16 16 16 13 13 12 11 11 10 10 9 9 8 8 8 7 7 7 7 6 6 5
14 15 16 16 17 17 18 18 18 17 19 20 18 17 17 17 17 16 16 16 16 12 11 11 10 10 9 9 9 8 8 7 7 7 7 6 6 6
15 16 16 17 17 17 18 18 18 17 17 20 19 19 18 17 17 17 16 15 15 13 11 10 10 10 9 9 9 8 8 7 7 8 7 7 6 6
15 16 17 17 18 18 18 18 18 18 18 18 19 18 18 17 17 16 16 15 14 12 10 10 10 9 9 9 9 8 7 8 8 8 8 8 7 7
15 16 17 17 18 18 18 18 18 19 19 19 19 19 18 17 17 17 17 16 15 14 12 12 10 10 10 9 8 8 8 8 8 8 8 8 8 7
17 17 17 17 16 16 17 18 18 18 19 19 19 18 18 17 18 16 16 16 15 14 14 14 14 14 13 10 9 9 9 8 8 8 8 8 8 7
17 18 17 16 15 15 15 15 16 18 18 18 18 18 17 16 16 16 16 17 18 14 16 15 14 13 12 12 9 8 8 8 8 8 8 8 8 7
17 18 17 16 16 16 15 14 15 15 15 15 16 16 16 16 15 16 15 15 16 14 15 16 14 14 12 12 9 9 9 9 9 8 8 8 8 8
17 17 17 17 17 17 16 17 17 16 15 14 15 15 15 14 14 14 14 15 15 14 14 16 14 14 13 13 10 10 9 9 9 9 9 9 9 8
17 16 16 16 15 15 17 17 16 15 13 13 12 12 11 11 12 15 17 18 15 14 12 14 14 14 14 14 13 11 10 10 10 10 10 9 9 9
17 16 15 15 14 14 17 17 17 17 16 16 14 12 11 12 11 13 16 17 16 17 14 15 16 16 18 15 14 14 14 12 11 11 11 10 10 12
17 16 15 13 13 12 14 16 15 14 14 15 15 15 14 14 14 14 13 14 17 16 13 15 18 18 19 18 17 15 15 15 15 14 12 11 11 11
16 15 14 12 12 12 12 12 11 11 13 14 15 15 15 14 14 14 13 13 13 13 14 15 19 19 21 20 20 16 16 15 15 16 15 13 12 11
15 15 14 13 12 11 11 11 12 12 12 14 14 14 14 15 14 14 14 14 15 15 14 15 17 16 19 22 20 19 18 17 16 16 15 15 14 13
13 14 13 13 11 11 12 11 11 12 12 13 14 15 14 15 16 16 19 19 22 22 16 16 16 16 18 18 18 20 18 19 17 15 14 14 13 12
13 13 13 14 13 13 14 13 14 15 15 15 15 16 16 16 17 19 20 23 24 23 22 20 17 16 17 18 21 19 18 16 15 15 15 14 13 12
14 14 14 13 13 14 15 16 15 15 15 16 19 19 19 20 20 21 22 25 25 24 24 22 21 22 23 21 15 19 18 16 16 15 13 14 15 13
14 14 15 16 16 15 15 15 16 16 18 17 18 20 20 19 21 22 21 22 26 25 24 23 24 25 30 29 21 14 18 17 15 15 13 14 14 13
16 16 16 15 15 16 17 18 19 21 21 21 22 22 22 23 23 23 21 26 27 28 29 27 24 24 24 25 25 19 14 16 15 15 15 13 12 10
18 18 18 19 20 21 23 22 21 21 20 22 24 25 24 24 27 22 23 24 26 29 29 25 20 16 19 24 26 24 18 13 13 15 14 15 16 15
22 22 23 22 22 21 22 22 21 23 23 24 25 24 25 23 23 28 28 28 30 27 25 21 20 21 23 21 21 21 19 16 14 12 11 12 14 16
25 25 25 25 25 24 22 23 24 24 24 24 26 25 25 27 24 25 28 29 29 29 28 27 24 22 22 21 20 20 20 19 18 18 16 12 11 10